Weather History for Dyersburg, TN

Change the Weather History Date:

Wednesday, May 13, 2009

  Actual Average Record
Temperature  
Mean Temperature 75 °F -  
Max Temperature 84 °F 76 °F 89 °F (2005)
Min Temperature 66 °F 58 °F 44 °F (1997)
Cooling Degree Days 10    
Growing Degree Days 25 (Base 50)    
Moisture  
Dew Point 62 °F    
Average Humidity 70    
Maximum Humidity 83    
Minimum Humidity 55    
Precipitation  
Precipitation 0.00 in - - ()
Sea Level Pressure  
Sea Level Pressure 29.95 in    
Wind  
Wind Speed 10 mph (SSE)    
Max Wind Speed 17 mph    
Max Gust Speed 30 mph    
Visibility 10 miles    
Events      
Averages and records for this station are not official NWS values.
T = Trace of Precipitation, MM = Missing Value Source: NWS Daily Summary

Daily Weather History Graph

Daily Weather History Graph

Search for Another Location

Airport:

Trip Planner

Search our weather history database for the weather conditions in past years. The results will help you decide how hot, cold, wet, or windy it might be!

Date:

Astronomy

May. 13, 2009 Rise Set
Actual Time 5:53 AM CDT 7:55 PM CDT
Civil Twilight 5:24 AM CDT 8:23 PM CDT
Nautical Twilight 4:50 AM CDT 8:58 PM CDT
Astronomical Twilight 4:13 AM CDT 9:35 PM CDT
Moon No Moon Rise 9:08 AM CDT (5/13)
Length of Visible Light 14h 58m
Length of Day
14h 01m
Waning Gibbous, 82% of the Moon is Illuminated
May 13
Waning Gibbous
May 17
Last Quarter
May 24
New
May 30
First Quarter
Jun 7
Full

Hourly Weather History & Observations

Time (CDT) Temp. Heat Index Dew Point Humidity Pressure Visibility Wind Dir Wind Speed Gust Speed Precip Events Conditions
12:15 AM 68.0 °F - 57.2 °F 68% 29.93 in 10.0 mi SSE 12.7 mph 19.6 mph N/A   Clear
12:35 AM 68.0 °F - 57.2 °F 68% 29.91 in 10.0 mi SSE 12.7 mph 20.7 mph N/A   Clear
12:55 AM 68.0 °F - 57.2 °F 68% 29.90 in 10.0 mi SSE 12.7 mph 20.7 mph N/A   Clear
1:15 AM 68.0 °F - 57.2 °F 68% 29.92 in 10.0 mi South 6.9 mph - N/A   Clear
1:35 AM 68.0 °F - 57.2 °F 68% 29.91 in 10.0 mi SSE 6.9 mph - N/A   Clear
1:55 AM 68.0 °F - 57.2 °F 68% 29.92 in 10.0 mi SSE 9.2 mph - N/A   Clear
2:15 AM 68.0 °F - 59.0 °F 73% 29.91 in 10.0 mi SSE 8.1 mph 16.1 mph N/A   Clear
2:35 AM 66.2 °F - 59.0 °F 78% 29.93 in 10.0 mi South 6.9 mph - N/A   Clear
2:55 AM 66.2 °F - 59.0 °F 78% 29.93 in 10.0 mi South 5.8 mph - N/A   Partly Cloudy
3:15 AM 66.2 °F - 59.0 °F 78% 29.95 in 10.0 mi South 5.8 mph - N/A   Clear
3:35 AM 66.2 °F - 59.0 °F 78% 29.95 in 10.0 mi South 4.6 mph - N/A   Clear
3:55 AM 66.2 °F - 57.2 °F 73% 29.96 in 10.0 mi South 4.6 mph - N/A   Clear
4:15 AM 66.2 °F - 57.2 °F 73% 29.96 in 10.0 mi South 5.8 mph - N/A   Clear
4:35 AM 66.2 °F - 57.2 °F 73% 29.96 in 10.0 mi South 5.8 mph - N/A   Mostly Cloudy
4:55 AM 66.2 °F - 57.2 °F 73% 29.96 in 10.0 mi South 5.8 mph - N/A   Overcast
5:15 AM 66.2 °F - 57.2 °F 73% 29.96 in 10.0 mi South 6.9 mph - N/A   Scattered Clouds
5:35 AM 66.2 °F - 57.2 °F 73% 29.98 in 10.0 mi South 6.9 mph - N/A   Clear
5:55 AM 66.2 °F - 57.2 °F 73% 29.97 in 10.0 mi South 9.2 mph 16.1 mph N/A   Clear
6:15 AM 66.2 °F - 59.0 °F 78% 29.98 in 10.0 mi South 8.1 mph 21.9 mph N/A   Partly Cloudy
6:35 AM 66.2 °F - 59.0 °F 78% 29.99 in 10.0 mi South 13.8 mph 23.0 mph N/A   Mostly Cloudy
6:55 AM 66.2 °F - 59.0 °F 78% 29.99 in 10.0 mi South 12.7 mph 20.7 mph N/A   Overcast
7:15 AM 66.2 °F - 59.0 °F 78% 29.99 in 10.0 mi SSE 12.7 mph 23.0 mph N/A   Overcast
7:35 AM 66.2 °F - 60.8 °F 83% 29.99 in 10.0 mi SSE 11.5 mph 23.0 mph N/A   Overcast
7:55 AM 68.0 °F - 60.8 °F 78% 29.98 in 10.0 mi SSE 11.5 mph 21.9 mph N/A   Overcast
8:15 AM 68.0 °F - 60.8 °F 78% 29.98 in 10.0 mi SSE 12.7 mph 20.7 mph N/A   Overcast
8:35 AM 69.8 °F - 60.8 °F 73% 29.98 in 10.0 mi SSE 13.8 mph 19.6 mph N/A   Overcast
8:55 AM 69.8 °F - 60.8 °F 73% 29.97 in 10.0 mi SSE 13.8 mph 19.6 mph N/A   Overcast
9:15 AM 71.6 °F - 62.6 °F 73% 29.96 in 10.0 mi SSE 13.8 mph 20.7 mph N/A   Overcast
9:35 AM 71.6 °F - 62.6 °F 73% 29.96 in 10.0 mi South 12.7 mph 20.7 mph N/A   Overcast
9:55 AM 71.6 °F - 62.6 °F 73% 29.96 in 10.0 mi SSE 12.7 mph 21.9 mph N/A   Overcast
10:15 AM 73.4 °F - 64.4 °F 73% 29.96 in 10.0 mi SSE 13.8 mph 20.7 mph N/A   Overcast
10:35 AM 75.2 °F - 64.4 °F 69% 29.96 in 10.0 mi South 11.5 mph 23.0 mph N/A   Overcast
10:55 AM 77.0 °F - 64.4 °F 65% 29.96 in 10.0 mi SSE 12.7 mph 24.2 mph N/A   Overcast
11:15 AM 78.8 °F - 64.4 °F 61% 29.95 in 10.0 mi SSE 15.0 mph 21.9 mph N/A   Overcast
11:35 AM 77.0 °F - 64.4 °F 65% 29.95 in 10.0 mi South 13.8 mph 23.0 mph N/A   Overcast
11:55 AM 78.8 °F - 66.2 °F 65% 29.95 in 10.0 mi South 13.8 mph 20.7 mph N/A   Overcast
12:15 PM 80.6 °F 82.7 °F 66.2 °F 61% 29.95 in 10.0 mi South 16.1 mph 24.2 mph N/A   Overcast
12:35 PM 80.6 °F 82.7 °F 66.2 °F 61% 29.94 in 10.0 mi South 17.3 mph 25.3 mph N/A   Mostly Cloudy
12:55 PM 80.6 °F 82.7 °F 66.2 °F 61% 29.94 in 10.0 mi South 9.2 mph 21.9 mph N/A   Mostly Cloudy
1:15 PM 80.6 °F 82.7 °F 66.2 °F 61% 29.94 in 10.0 mi South 11.5 mph 25.3 mph N/A   Mostly Cloudy
1:35 PM 82.4 °F 84.6 °F 66.2 °F 58% 29.93 in 10.0 mi South 15.0 mph 29.9 mph N/A   Scattered Clouds
1:55 PM 82.4 °F 84.6 °F 66.2 °F 58% 29.93 in 10.0 mi South 12.7 mph 23.0 mph N/A   Scattered Clouds
2:15 PM 82.4 °F 84.6 °F 66.2 °F 58% 29.93 in 10.0 mi South 12.7 mph 24.2 mph N/A   Mostly Cloudy
2:35 PM 84.2 °F 86.6 °F 66.2 °F 55% 29.92 in 10.0 mi South 12.7 mph 19.6 mph N/A   Mostly Cloudy
2:55 PM 84.2 °F 86.6 °F 66.2 °F 55% 29.92 in 10.0 mi South 12.7 mph 23.0 mph N/A   Scattered Clouds
10:55 PM 75.2 °F - 66.2 °F 73% 29.93 in 10.0 mi South 11.5 mph 20.7 mph N/A   Overcast
11:15 PM 73.4 °F - 66.2 °F 78% 29.94 in 10.0 mi South 11.5 mph 21.9 mph N/A   Overcast
11:35 PM 73.4 °F - 66.2 °F 78% 29.96 in 10.0 mi South 6.9 mph - N/A   Overcast
11:55 PM 73.4 °F - 66.2 °F 78% 29.95 in 10.0 mi South 12.7 mph 17.3 mph N/A   Overcast